sat.trackr.live / text

‹ back to catalog

STARLINK-33582

NORAD 62783 · 2025-015AB

PAYLOAD ACTIVE UNKNOWN

§ Identity

Operator
Country
US
Launch date
2025-01-21
Launch site
AFWTR
Launch vehicle
Mass (kg)
RCS (m²)

Purposes: comms

External: N2YO · Heavens-Above · Gunter

§ Orbital elements

Epoch: 2026-05-24T18:32:47.244192Z

Period
93.69 min
Inclination
53.1592°
Eccentricity
0.0002962
Mean motion
15.36904347 rev/d
Perigee alt
453.2 km
Apogee alt
457.3 km
Semi-major
6,833.4 km
B*
1.7523e-3
RAAN
327.3652°
Arg perigee
214.0868°
Mean anomaly
145.9946°
Rev number
7,608

§ Raw data

STARLINK-335821 62783U 25015AB  26144.77276903  .00064318  00000+0  17523-2 0  99982 62783  53.1592 327.3652 0002962 214.0868 145.9946 15.36904347 76080

JSON: /api/v1/satellites/62783 · /tle

For live sub-satellite position, see the globe view (requires WebGL).

§ Visibility from observer

Set your observer location to see the next 7 days of passes ≥ 10°. The values pass through the URL so the page stays shareable.

No JS? Fill the form by hand. The geolocation button needs JavaScript.